Onweer van: 25-07-2021 11:00 tot: 20:00 waarschuwing voor: Onweer niveau: Geel info button


waarschuwing voor Onweer Meer informatie blitzortung!


Regen radar Meer informatie rain snow radar


Bezoek onze andere website:

Template documentation
and downloads

And another site



15 daagse weersverwachting Köniz (CH)

  • Overzicht
  • Per uur
  • 15 dagen
  • Extra
  • Vergelijk
  • Kaarten
  • Dagkaart
  • Meer »
  • Info
  • Statistieken
  • Directe link
    Temp 6h Neerslag Wind  
 06:04     21:11    Daglengte: 15:07 Vandaag
08:00
17°
10.8 mm
1
14:00
20°
5.7 mm
1
20:00
21°
 
1
 06:05     21:10    Daglengte: 15:05 Morgen
02:00
16°
 
1
08:00
16°
6.9 mm
1
14:00
21°
12.6 mm
2
20:00
20°
3.6 mm
1
 06:06     21:08    Daglengte: 15:02 Dinsdag 27 Jul
02:00
14°
 
1
08:00
15°
 
1
14:00
23°
 
2
20:00
19°
9.6 mm
0
warningclass
 06:07     21:07    Daglengte: 15:00 Woensdag 28 Jul
02:00
16°
23.0 mm
1
Locatie info
Region: Bern-Mittelland
Latitude: 46.9229°N
Longitude: 7.4143°E
577 masl
Postcode: 3098
Temp/Neerslag /Baro Onweer/Dauwpunt
    Temp Baro 1h Neerslag Dauwpunt Wind UV Bewolking  
 06:04     21:11    Daglengte: 15:07 Vandaag
06:00
17°
1010.7 hPa 7.1 mm
49%
15.5°
1
Windvlaag: -0.2 m/s
84%
07:00
17°
1010.8 hPa 1.5 mm
82%
14.9°
1
Windvlaag: -0.4 m/s
84% warningclass
08:00
17°
1010.9 hPa 2.2 mm
82%
14.1°
1
Windvlaag: 1.9 m/s
75%
09:00
18°
1011.3 hPa 1.9 mm
82%
14.1°
1
Windvlaag: 1.9 m/s
82% warningclass
10:00
18°
1011.3 hPa 2.0 mm
82%
14.2°
1
Windvlaag: 1.6 m/s
67%
11:00
18°
1011.5 hPa 1.8 mm
82%
14.4°
1
Windvlaag: 1.1 m/s
72% warningclass
12:00
19°
1011.5 hPa
82%
13.7°
1
Windvlaag: 1.4 m/s
44% warningclass
13:00
19°
1011.4 hPa
82%
14.2°
1
Windvlaag: 0.4 m/s
41% warningclass
14:00
20°
1011.1 hPa
79%
16.0°
1
Windvlaag: 0.3 m/s
33%
15:00
22°
1010.9 hPa
75%
17.3°
2
Windvlaag: -1.2 m/s
10%
16:00
22°
1010.6 hPa
82%
16.1°
2
Windvlaag: -1.7 m/s
19%
17:00
22°
1010.5 hPa
81%
14.9°
2
Windvlaag: -1.5 m/s
24%
18:00
22°
1010.4 hPa
79%
14.4°
3
Windvlaag: -0.3 m/s
13%
19:00
21°
1010.6 hPa
43%
15.6°
2
Windvlaag: -0.1 m/s
11%
20:00
21°
1011.0 hPa
38%
15.9°
1
Windvlaag: 0.4 m/s
43%
21:00
19°
1011.6 hPa
78%
16.3°
1
Windvlaag: 0.2 m/s
35%
22:00
18°
1012.3 hPa
63%
16.0°
1
Windvlaag: 0.5 m/s
38%
23:00
17°
1012.5 hPa
15%
15.7°
1
Windvlaag: 0.7 m/s
29%
 06:05     21:10    Daglengte: 15:05 Morgen
00:00
16°
1013.0 hPa
14%
15.2°
1
Windvlaag: 0.8 m/s
61%
01:00
16°
1012.8 hPa
14%
15.1°
1
Windvlaag: 1 m/s
45%
02:00
16°
1012.7 hPa
14%
14.5°
1
Windvlaag: 1.3 m/s
59%
03:00
15°
1012.7 hPa
15%
14.1°
1
Windvlaag: 2.4 m/s
61%
04:00
15°
1012.9 hPa
14%
14.0°
1
Windvlaag: 2.2 m/s
60%
05:00
15°
1012.9 hPa
22%
13.6°
1
Windvlaag: 2.8 m/s
57%
06:00
15°
1013.3 hPa 2.0 mm
67%
13.7°
1
Windvlaag: 2.6 m/s
67%
07:00
15°
1013.5 hPa 2.6 mm
62%
13.8°
1
Windvlaag: 2.4 m/s
73% warningclass
08:00
16°
1013.8 hPa 2.3 mm
72%
14.3°
1
Windvlaag: 2.1 m/s
78%
09:00
17°
1014.0 hPa 2.4 mm
82%
15.0°
1
Windvlaag: 0.5 m/s
66% warningclass
10:00
18°
1014.2 hPa 2.1 mm
82%
15.0°
1
Windvlaag: -1.8 m/s
69% warningclass
11:00
19°
1014.3 hPa 2.2 mm
82%
14.3°
2
Windvlaag: -3.8 m/s
58%
12:00
20°
1014.4 hPa 2.2 mm
82%
14.1°
2
Windvlaag: -3.4 m/s
61%
13:00
20°
1014.4 hPa 1.8 mm
82%
14.1°
2
Windvlaag: -0.9 m/s
48%
14:00
21°
1014.0 hPa 1.7 mm
82%
14.3°
2
Windvlaag: -0.1 m/s
20%
15:00
22°
1013.7 hPa
82%
15.0°
2
Windvlaag: -0.9 m/s
32%
16:00
21°
1013.5 hPa 1.7 mm
82%
17.3°
2
Windvlaag: -1.4 m/s
37%
17:00
22°
1013.6 hPa 1.8 mm
82%
17.7°
2
Windvlaag: -0.5 m/s
35%
18:00
21°
1013.7 hPa
82%
18.1°
2
Windvlaag: 0.4 m/s
27%
19:00
21°
1013.7 hPa
38%
18.3°
2
Windvlaag: 1.5 m/s
13%
20:00
20°
1014.1 hPa
27%
18.0°
1
Windvlaag: 0.4 m/s
22%
21:00
19°
1014.6 hPa
16%
17.2°
1
Windvlaag: -1.5 m/s
19%
22:00
18°
1015.4 hPa
19%
16.7°
1
Windvlaag: 0.4 m/s
9%
23:00
17°
1015.8 hPa
22%
14.4°
2
Windvlaag: 1 m/s
14%
 06:06     21:08    Daglengte: 15:02 Dinsdag 27 Jul
00:00
16°
1016.0 hPa
22%
13.3°
1
Windvlaag: 1.8 m/s
12%
01:00
15°
1016.0 hPa
21%
12.8°
1
Windvlaag: 1.7 m/s
10%
02:00
14°
1016.1 hPa
21%
11.8°
1
Windvlaag: 1.5 m/s
10%
03:00
14°
1016.0 hPa
21%
11.2°
1
Windvlaag: 1.8 m/s
10%
04:00
14°
1016.0 hPa
21%
10.6°
1
Windvlaag: 1.7 m/s
8%
05:00
13°
1016.0 hPa
21%
9.5°
1
Windvlaag: 1.7 m/s
7%
06:00
13°
1015.9 hPa
21%
9.1°
2
Windvlaag: 1.8 m/s
44%
07:00
14°
1015.9 hPa
21%
9.1°
1
Windvlaag: 1.7 m/s
37%
08:00
15°
1015.8 hPa
21%
10.1°
1
Windvlaag: 1.5 m/s
35%
09:00
17°
1015.8 hPa
21%
12.5°
0
Windvlaag: 1.7 m/s
44%
10:00
19°
1015.5 hPa
21%
13.2°
1
Windvlaag: 3.7 m/s
14%
11:00
20°
1015.1 hPa
21%
12.9°
1
Windvlaag: 4.6 m/s
60%
12:00
21°
1014.7 hPa
21%
12.5°
2
Windvlaag: 4.8 m/s
74%
13:00
22°
1014.4 hPa
28%
12.2°
2
Windvlaag: 5.2 m/s
67%
14:00
23°
1014.1 hPa
32%
12.4°
2
Windvlaag: 5.8 m/s
70%
15:00
23°
1013.8 hPa
89%
13.2°
2
Windvlaag: 7.5 m/s
85%
16:00
23°
1013.9 hPa
99%
14.5°
2
Windvlaag: 8 m/s
89%
17:00
23°
1013.9 hPa
57%
14.2°
2
Windvlaag: 7.9 m/s
96%
18:00
21°
1014.4 hPa 3.3 mm
100%
14.0°
3
Windvlaag: 4.9 m/s
100% warningclass
19:00
20°
1014.6 hPa 3.2 mm
100%
13.7°
1
Windvlaag: 3 m/s
100% warningclass
20:00
19°
1015.0 hPa 3.2 mm
99%
14.0°
0
Windvlaag: 2.4 m/s
95% warningclass
21:00
18°
1015.6 hPa 3.7 mm
100%
14.9°
1
Windvlaag: 0.6 m/s
94% warningclass
22:00
17°
1015.9 hPa 3.6 mm
100%
14.1°
1
Windvlaag: 1.2 m/s
95% warningclass
23:00
17°
1016.2 hPa 5.5 mm
100%
13.9°
1
Windvlaag: 1.4 m/s
99% warningclass
 06:07     21:07    Daglengte: 15:00 Woensdag 28 Jul
00:00
16°
1016.2 hPa 3.6 mm
100%
14.1°
1
Windvlaag: 1.9 m/s
94% warningclass
01:00
16°
1016.1 hPa
44%
14.2°
0
Windvlaag: 0.6 m/s
63%
02:00
16°
1016.2 hPa
35%
14.2°
1
Windvlaag: 2.3 m/s
38%
Temp/Neerslag /Baro Onweer/Dauwpunt
    Temp Baro Neerslag Dauwpunt Wind Bewolking  
 06:04     21:11    Daglengte: 15:07 Vandaag
08:00
17°
1010.9 hPa 10.8 mm 14.1°
1
75%
11:00
18°
1011.5 hPa 5.7 mm 14.4°
1
72% warningclass
14:00
20°
1011.1 hPa   16.0°
1
33%
17:00
22°
1010.5 hPa   14.9°
2
24%
20:00
21°
1011.0 hPa   15.9°
1
43%
23:00
17°
1012.5 hPa   15.7°
1
29%
 06:05     21:10    Daglengte: 15:05 Morgen
02:00
16°
1012.7 hPa   14.5°
1
59%
05:00
15°
1012.9 hPa   13.6°
1
57%
08:00
16°
1013.8 hPa 6.9 mm 14.3°
1
78%
11:00
19°
1014.3 hPa 6.8 mm 14.3°
2
58%
14:00
21°
1014.0 hPa 5.7 mm 14.3°
2
20%
17:00
22°
1013.6 hPa 3.6 mm 17.7°
2
35%
20:00
20°
1014.1 hPa   18.0°
1
22%
23:00
17°
1015.8 hPa   14.4°
2
14%
 06:06     21:08    Daglengte: 15:02 Dinsdag 27 Jul
02:00
14°
1016.1 hPa   11.8°
1
10%
05:00
13°
1016.0 hPa   9.5°
1
7%
08:00
15°
1015.8 hPa   10.1°
1
35%
11:00
20°
1015.1 hPa   12.9°
1
60%
14:00
23°
1014.1 hPa   12.4°
2
70%
17:00
23°
1013.9 hPa   14.2°
2
96%
20:00
19°
1015.0 hPa 9.6 mm 14.0°
0
95% warningclass
23:00
17°
1016.2 hPa 12.8 mm 13.9°
1
99% warningclass
 06:07     21:07    Daglengte: 15:00 Woensdag 28 Jul
02:00
16°
1016.2 hPa 10.3 mm 14.2°
1
38%
05:00
15°
1016.3 hPa 33.0 mm 15.1°
1
1%
08:00
16°
1016.9 hPa 33.1 mm 15.2°
0
1%
11:00
18°
1017.2 hPa 33.3 mm 13.8°
1
1%
14:00
21°
1016.8 hPa 33.4 mm 13.2°
1
1%
17:00
23°
1015.6 hPa 33.6 mm 13.1°
2
0%
20:00
20°
1015.8 hPa 33.7 mm 16.2°
1
0%
23:00
15°
1017.2 hPa 33.7 mm 14.2°
0
0%
 06:08     21:06    Daglengte: 14:58 Donderdag 29 Jul
02:00
14°
1016.3 hPa 33.7 mm 13.4°
1
0%
05:00
13°
1015.9 hPa 33.7 mm 12.7°
1
0%
08:00
16°
1015.6 hPa 33.7 mm 14.0°
0
0%
11:00
22°
1014.5 hPa 33.7 mm 14.3°
1
0%
14:00
26°
1013.3 hPa 33.7 mm 15.3°
2
0%
17:00
27°
1012.2 hPa 33.8 mm 17.1°
3
0%
20:00
22°
1012.2 hPa 34.6 mm 19.5°
0
0%
23:00
18°
1014.1 hPa 37.7 mm 17.7°
2
1%
 06:10     21:05    Daglengte: 14:55 Vrijdag 30 Jul
02:00
17°
1014.4 hPa 38.2 mm 16.5°
1
1%
05:00
16°
1014.5 hPa 39.3 mm 15.8°
1
1%
08:00
18°
1014.8 hPa 40.0 mm 17.1°
1
1%
11:00
21°
1013.7 hPa 40.2 mm 18.3°
1
1%
14:00
25°
1012.1 hPa 40.3 mm 16.8°
2
1%
17:00
25°
1011.1 hPa 41.5 mm 17.7°
2
0%
20:00
21°
1011.5 hPa 43.1 mm 19.0°
2
0%
23:00
17°
1013.3 hPa 45.4 mm 16.9°
2
1%
 06:11     21:03    Daglengte: 14:52 Zaterdag 31 Jul
02:00
16°
1013.2 hPa 45.8 mm 15.7°
1
1%
05:00
15°
1012.8 hPa 45.9 mm 14.5°
2
0%
08:00
17°
1012.8 hPa 46.0 mm 15.9°
1
0%
11:00
22°
1012.6 hPa 46.1 mm 15.8°
3
0%
14:00
24°
1012.6 hPa 46.3 mm 14.1°
4
0%
17:00
21°
1013.1 hPa 46.9 mm 15.5°
2
1%
20:00
18°
1014.2 hPa 47.3 mm 14.7°
1
1%
23:00
16°
1016.2 hPa 48.0 mm 14.7°
1
1%
 06:12     21:02    Daglengte: 14:50 Zondag 01 Aug
02:00
15°
1017.2 hPa 48.3 mm 13.1°
1
1%
05:00
14°
1017.1 hPa   12.3°
1
1%
08:00
15°
1017.8 hPa 97.2 mm 12.7°
0
1%
14:00
21°
1017.1 hPa 97.6 mm 7.6°
2
0%
20:00
17°
1017.9 hPa 97.9 mm 13.7°
1
0%
 06:13     21:01    Daglengte: 14:48 Maandag 02 Aug
02:00
13°
1021.4 hPa 98.4 mm 11.6°
0
0%
08:00
14°
1021.7 hPa 98.4 mm 11.7°
1
0%
14:00
22°
1019.3 hPa 98.6 mm 8.7°
1
0%
20:00
18°
1019.1 hPa 98.6 mm 13.7°
2
1%
 06:14     20:59    Daglengte: 14:45 Dinsdag 03 Aug
02:00
13°
1020.0 hPa 98.6 mm 11.3°
1
1%
14:00
22°
1015.2 hPa 147.9 mm 11.8°
2
1%
20:00
17°
1015.1 hPa 99.4 mm 14.7°
3
1%
 06:16     20:58    Daglengte: 14:42 Woensdag 04 Aug
02:00
11°
1015.6 hPa 1.3 mm 10.0°
1
52%
08:00
12°
1015.5 hPa 0.8 mm 10.7°
1
56%
14:00
19°
1014.4 hPa 0.7 mm 10.9°
2
57%
20:00
16°
1015.0 hPa 1.2 mm 12.5°
1
48%
 06:17     20:56    Daglengte: 14:39 Donderdag 05 Aug
02:00
11°
1016.7 hPa 0.5 mm 9.8°
1
48%
08:00
12°
1016.5 hPa 0.4 mm 10.4°
1
57%
14:00
20°
1015.4 hPa 1.1 mm 11.8°
2
62%
20:00
16°
1015.8 hPa 1.3 mm 13.3°
0
59%
 06:18     20:55    Daglengte: 14:37 Vrijdag 06 Aug
02:00
12°
1017.2 hPa 0.6 mm 10.4°
1
57%
08:00
13°
1017.1 hPa 0.6 mm 11.1°
1
50%
14:00
20°
1015.9 hPa 1.6 mm 12.5°
2
55%
20:00
16°
1016.1 hPa 2.5 mm 13.6°
1
50%
 06:20     20:53    Daglengte: 14:33 Zaterdag 07 Aug
02:00
12°
1017.6 hPa 1.9 mm 10.7°
1
56%
08:00
12°
1017.5 hPa 2.0 mm 11.0°
1
62%
14:00
19°
1016.4 hPa 2.3 mm 12.3°
2
64%
20:00
16°
1016.7 hPa 1.8 mm 13.2°
1
58%
 06:21     20:52    Daglengte: 14:31 Zondag 08 Aug
02:00
12°
1018.4 hPa 0.7 mm 10.4°
1
51%
08:00
13°
1018.4 hPa 0.8 mm 10.9°
1
45%
14:00
21°
1017.0 hPa 0.7 mm 12.0°
2
47%
20:00
17°
1017.4 hPa 1.3 mm 13.8°
1
47%
 06:22     20:50    Daglengte: 14:28 Maandag 09 Aug
02:00
12°
1018.9 hPa 1.6 mm 11.1°
1
54%
08:00
13°
1018.8 hPa 0.5 mm 11.6°
1
40%
  CAPE Lifted Index Hail Supercell Tornado SRH 3km CL BTM PRES CL TOP PRES Swiss DWD icon SMHI TS
 06:04     21:11    Daglengte: 15:07 Vandaag
06:00 311 J/kg -1.6 K 0 % 0 % 0 % 0 m²/s² 0 0 -0.64 80
07:00 196 J/kg -1.1 K 0 % 0 % 0 % 0 m²/s² 0 0 0.13 95
08:00 401 J/kg -1.3 K 0 % 0 % 0 % 0 m²/s² 0 0 0.14 81
09:00 557 J/kg -2.1 K 0 % 0 % 0 % 0 m²/s² 0 0 -0.72 95
10:00 901 J/kg -3.3 K 0 % 0 % 0 % 0 m²/s² 0 0 -1.44 80
11:00 1108 J/kg -3.8 K 0 % 0 % 0 % 0 m²/s² 0 0 -1.49 95
12:00 944 J/kg -3.4 K 0 % 0 % 0 % 0 m²/s² 0 0 -1.03 95
13:00 712 J/kg -2.7 K 0 % 0 % 0 % 0 m²/s² 0 0 -0.6 95
14:00 623 J/kg -2.6 K 0 % 0 % 0 % 0 m²/s² 0 0 -0.77 80
15:00 625 J/kg -2.3 K 0 % 0 % 0 % 0 m²/s² 0 0 -0.38 3
16:00 842 J/kg -3.4 K 0 % 0 % 0 % 0 m²/s² 0 0 -1.69 2
17:00 851 J/kg -3.6 K 0 % 0 % 0 % 0 m²/s² 0 0 -1.62 3
18:00 1010 J/kg -4.1 K 0 % 0 % 0 % 0 m²/s² 0 0 -1.79 1
19:00 1179 J/kg -4.6 K 0 % 0 % 0 % 0 m²/s² 0 0 -2.05 1
20:00 1072 J/kg -4.1 K 0 % 0 % 0 % 0 m²/s² 0 0 -1.4 3
21:00 914 J/kg -3.1 K 0 % 0 % 0 % 0 m²/s² 0 0 -0.7 3
22:00 778 J/kg -3.1 K 0 % 0 % 0 % 0 m²/s² 0 0 -1.18 3
23:00 622 J/kg -2.8 K 0 % 0 % 0 % 0 m²/s² 0 0 -0.82 3
 06:05     21:10    Daglengte: 15:05 Morgen
00:00 633 J/kg -3.3 K 0 % 0 % 0 % 0 m²/s² 0 0 -1.59 45
01:00 652 J/kg -3.7 K 0 % 0 % 0 % 0 m²/s² 0 0 -1.99 3
02:00 586 J/kg -3.8 K 0 % 0 % 0 % 0 m²/s² 0 0 -2.09 3
03:00 310 J/kg -3.7 K 0 % 0 % 0 % 0 m²/s² 0 0 -1.87 45
04:00 362 J/kg -3.5 K 0 % 0 % 0 % 0 m²/s² 0 0 -1.91 45
05:00 321 J/kg -3.2 K 0 % 0 % 0 % 0 m²/s² 0 0 -1.49 45
06:00 305 J/kg -2.9 K 0 % 0 % 0 % 0 m²/s² 0 0 -1.13 3
07:00 268 J/kg -2.7 K 0 % 0 % 0 % 0 m²/s² 0 0 -0.6 95
08:00 423 J/kg -2.6 K 0 % 0 % 0 % 0 m²/s² 0 0 -0.29 81
09:00 607 J/kg -2.5 K 0 % 0 % 0 % 0 m²/s² 0 0 -0.4 95
10:00 810 J/kg -3.2 K 0 % 0 % 0 % 0 m²/s² 0 0 -0.89 95
11:00 761 J/kg -3.1 K 0 % 0 % 0 % 0 m²/s² 0 0 -0.49 3
12:00 629 J/kg -2.5 K 0 % 0 % 0 % 0 m²/s² 0 0 0.17 80
13:00 708 J/kg -2.9 K 0 % 0 % 0 % 0 m²/s² 0 0 -0.23 80
14:00 821 J/kg -3.0 K 0 % 0 % 0 % 0 m²/s² 0 0 0 80
15:00 920 J/kg -3.1 K 0 % 0 % 0 % 0 m²/s² 0 0 -0.01 3
16:00 913 J/kg -3.2 K 0 % 0 % 0 % 0 m²/s² 0 0 -0.5 80
17:00 953 J/kg -3.2 K 0 % 0 % 0 % 0 m²/s² 0 0 -0.59 80
18:00 729 J/kg -2.4 K 0 % 0 % 0 % 0 m²/s² 0 0 0.06 3
19:00 817 J/kg -2.5 K 0 % 0 % 0 % 0 m²/s² 0 0 -0.91 2
20:00 898 J/kg -3.0 K 0 % 0 % 0 % 0 m²/s² 0 0 -0.69 1
21:00 931 J/kg -3.0 K 0 % 0 % 0 % 0 m²/s² 0 0 -0.63 0
22:00 985 J/kg -3.3 K 0 % 0 % 0 % 0 m²/s² 0 0 -0.24 0
23:00 685 J/kg -2.6 K 0 % 0 % 0 % 0 m²/s² 0 0 0.82 1
 06:06     21:08    Daglengte: 15:02 Dinsdag 27 Jul
00:00 464 J/kg -1.9 K 0 % 0 % 0 % 0 m²/s² 0 0 2.45 1
01:00 308 J/kg -1.9 K 0 % 0 % 0 % 0 m²/s² 0 0 2.54 2
02:00 77 J/kg -1.9 K 0 % 0 % 0 % 0 m²/s² 0 0 2.33 2
03:00 0 J/kg -1.5 K 0 % 0 % 0 % 0 m²/s² 0 0 2.73 45
04:00 0 J/kg -1.4 K 0 % 0 % 0 % 0 m²/s² 0 0 2.83 45
05:00 0 J/kg -1.7 K 0 % 0 % 0 % 0 m²/s² 0 0 2.11 45
06:00 0 J/kg -1.4 K 0 % 0 % 0 % 0 m²/s² 0 0 1.84 45
07:00 0 J/kg -1.3 K 0 % 0 % 0 % 0 m²/s² 0 0 0.71 45
08:00 0 J/kg -0.6 K 0 % 0 % 0 % 0 m²/s² 0 0 0.36 2
09:00 0 J/kg -0.1 K 0 % 0 % 0 % 0 m²/s² 0 0 0.56 3
10:00 112 J/kg -1.0 K 0 % 0 % 0 % 0 m²/s² 0 0 -0.43 2
11:00 194 J/kg -1.4 K 0 % 0 % 0 % 0 m²/s² 0 0 -0.68 3
12:00 251 J/kg -1.9 K 0 % 0 % 0 % 0 m²/s² 0 0 -0.58 3
13:00 302 J/kg -2.6 K 0 % 0 % 0 % 0 m²/s² 0 0 -0.59 3
14:00 359 J/kg -3.0 K 0 % 0 % 0 % 0 m²/s² 0 0 -0.57 3
15:00 416 J/kg -2.9 K 0 % 0 % 0 % 0 m²/s² 0 0 0.37 3
16:00 722 J/kg -3.8 K 0 % 0 % 0 % 0 m²/s² 0 0 -0.8 3
17:00 728 J/kg -3.8 K 0 % 0 % 0 % 0 m²/s² 0 0 -1.37 3
18:00 948 J/kg -4.1 K 0 % 0 % 0 % 0 m²/s² 0 0 -2.21 80
19:00 1042 J/kg -4.0 K 0 % 0 % 0 % 0 m²/s² 0 0 -2.65 61
20:00 1108 J/kg -4.1 K 0 % 0 % 0 % 0 m²/s² 0 0 -2.63 3
21:00 1178 J/kg -3.9 K 0 % 0 % 0 % 0 m²/s² 0 0 -2.64 80
22:00 1120 J/kg -4.1 K 0 % 0 % 0 % 0 m²/s² 0 0 -2.99 61
23:00 1023 J/kg -4.4 K 0 % 0 % 0 % 0 m²/s² 0 0 -3.8 63
 06:07     21:07    Daglengte: 15:00 Woensdag 28 Jul
00:00 816 J/kg -3.8 K 0 % 0 % 0 % 0 m²/s² 0 0 -2.81 61
01:00 366 J/kg -2.3 K 0 % 0 % 0 % 0 m²/s² 0 0 -1.04 3
02:00 453 J/kg -2.3 K 0 % 0 % 0 % 0 m²/s² 0 0 -1.25 3
Temp Baro Wind Neerslag
  EWN Forecast EWN WRFDA DWD ICON FMI HIRLAM MET Norway GFS
 06:04     21:11    Daglengte: 15:07 Vandaag
08:00 17.3° 1010.9 hPa 0.7 m/s 10.8 mm 17.8° 1009.1 hPa 1.4 m/s 15.9 mm 16.7° 1011.0 hPa 0.1 m/s 16.1 mm 18.6° 1011.5 hPa 0.5 m/s 0.0 mm 16.5° 1011.6 hPa 0.2 m/s
11:00 18.4° 1011.5 hPa 1.0 m/s 5.7 mm 21.3° 1009.1 hPa 1.8 m/s 16.0 mm 18.2° 1011.6 hPa 0.9 m/s 5.6 mm 19.6° 1012.1 hPa 0.6 m/s 0.0 mm 19.6° 1011.3 hPa 1.2 m/s
14:00 20.3° 1011.1 hPa 1.5 m/s 0.0 mm 23.8° 1008.7 hPa 4.2 m/s 16.0 mm 19.2° 1011.3 hPa 1.2 m/s 5.8 mm 21.1° 1011.3 hPa 1.5 m/s 0.0 mm 21.4° 1010.8 hPa 1.8 m/s
17:00 22.4° 1010.5 hPa 2.3 m/s 0.0 mm 23.3° 1008.7 hPa 2.0 m/s 16.1 mm 21.5° 1010.9 hPa 2.0 m/s 0.1 mm 22.6° 1010.7 hPa 3.1 m/s 0.0 mm 21.5° 1010.8 hPa 2.0 m/s
20:00 20.9° 1011.0 hPa 1.0 m/s 0.0 mm 20.7° 1009.3 hPa 2.1 m/s 19.8 mm 20.5° 1010.9 hPa 0.5 m/s 0.0 mm 21.0° 1011.8 hPa 0.7 m/s 0.0 mm 19.3° 1011.4 hPa 0.5 m/s
23:00 17.2° 1012.5 hPa 1.2 m/s 0.0 mm 17.0° 1010.4 hPa 1.2 m/s 21.2 mm 16.9° 1012.6 hPa 1.0 m/s 0.2 mm 17.2° 1013.6 hPa 1.5 m/s 0.0 mm 15.6° 1013.3 hPa 0.9 m/s
 06:05     21:10    Daglengte: 15:05 Morgen
02:00 15.6° 1012.7 hPa 1.0 m/s 0.0 mm 16.7° 1010.4 hPa 1.5 m/s 21.2 mm 15.4° 1012.9 hPa 0.9 m/s 0.0 mm 15.0° 1013.7 hPa 1.4 m/s 0.0 mm 14.7° 1013.3 hPa 1.0 m/s
05:00 14.6° 1012.9 hPa 1.1 m/s 0.0 mm 15.9° 1011.0 hPa 2.0 m/s 21.2 mm 14.3° 1012.9 hPa 0.9 m/s 0.0 mm 13.5° 1013.4 hPa 1.3 m/s 0.0 mm 13.6° 1013.5 hPa 1.0 m/s
08:00 16.0° 1013.8 hPa 0.7 m/s 6.9 mm 17.7° 1011.8 hPa 2.2 m/s 21.2 mm 15.8° 1014.2 hPa 0.2 m/s 3.7 mm 15.3° 1013.2 hPa 0.8 m/s 0.0 mm 15.7° 1014.2 hPa 0.5 m/s
11:00 18.6° 1014.3 hPa 1.9 m/s 6.8 mm 21.0° 1012.4 hPa 2.8 m/s 21.2 mm 18.1° 1014.9 hPa 1.8 m/s 3.6 mm 20.2° 1012.8 hPa 2.1 m/s 0.0 mm 20.2° 1014.1 hPa 1.4 m/s
14:00 21.0° 1014.0 hPa 1.9 m/s 5.7 mm 23.4° 1011.7 hPa 3.3 m/s 21.2 mm 20.0° 1014.6 hPa 1.7 m/s 1.4 mm 23.9° 1012.2 hPa 2.0 m/s 0.0 mm 22.0° 1013.5 hPa 2.8 m/s
17:00 21.6° 1013.6 hPa 1.7 m/s 3.6 mm 21.7° 1012.3 hPa 2.8 m/s 22.1 mm 20.6° 1014.5 hPa 1.7 m/s 0.7 mm 22.3° 1012.3 hPa 0.7 m/s 0.0 mm 21.3° 1013.9 hPa 2.1 m/s
20:00 20.4° 1014.1 hPa 1.2 m/s 0.0 mm 20.5° 1012.9 hPa 0.9 m/s 25.4 mm 19.9° 1014.9 hPa 1.1 m/s 0.1 mm 20.4° 1013.3 hPa 1.1 m/s 0.0 mm 19.1° 1014.9 hPa 0.7 m/s
23:00 16.6° 1015.8 hPa 1.9 m/s 0.0 mm 16.8° 1014.2 hPa 2.4 m/s 26.6 mm 15.7° 1016.3 hPa 1.4 m/s 0.0 mm 15.0° 1016.5 hPa 0.8 m/s
 06:06     21:08    Daglengte: 15:02 Dinsdag 27 Jul
02:00 14.4° 1016.1 hPa 1.2 m/s 0.0 mm 14.6° 1014.3 hPa 1.2 m/s 26.6 mm 13.3° 1016.4 hPa 1.1 m/s 0.0 mm 13.8° 1017.0 hPa 1.0 m/s
05:00 13.4° 1016.0 hPa 1.3 m/s 0.0 mm 13.8° 1014.1 hPa 2.6 m/s 26.6 mm 11.7° 1016.9 hPa 1.0 m/s 0.0 mm 13.3° 1016.6 hPa 0.9 m/s
08:00 15.3° 1015.8 hPa 1.0 m/s 0.0 mm 17.0° 1014.1 hPa 1.2 m/s 26.6 mm 14.7° 1016.4 hPa 0.6 m/s 0.0 mm 15.7° 1016.2 hPa 0.5 m/s
11:00 20.3° 1015.1 hPa 1.0 m/s 0.0 mm 20.8° 1014.2 hPa 1.5 m/s 26.6 mm 20.2° 1015.3 hPa 0.9 m/s 0.0 mm 18.7° 1015.4 hPa 0.8 m/s
14:00 23.0° 1014.1 hPa 1.5 m/s 0.0 mm 22.9° 1014.0 hPa 3.2 m/s 26.6 mm 23.0° 1014.1 hPa 1.1 m/s 0.0 mm 19.8° 1015.1 hPa 1.0 m/s
17:00 22.5° 1013.9 hPa 2.5 m/s 0.0 mm 23.1° 1013.6 hPa 2.9 m/s 26.6 mm 22.4° 1014.0 hPa 2.4 m/s 0.0 mm 20.8° 1014.8 hPa 0.6 m/s
20:00 19.3° 1015.0 hPa 0.3 m/s 9.6 mm 21.5° 1013.6 hPa 1.1 m/s 27.2 mm 18.8° 1015.3 hPa 0.1 m/s 0.9 mm 17.5° 1015.2 hPa 2.0 m/s
23:00 16.6° 1016.2 hPa 1.0 m/s 12.8 mm 17.2° 1015.1 hPa 1.3 m/s 29.7 mm 16.5° 1016.4 hPa 0.9 m/s 4.3 mm 15.5° 1016.7 hPa 1.1 m/s
 06:07     21:07    Daglengte: 15:00 Woensdag 28 Jul
02:00 16.1° 1016.2 hPa 0.8 m/s 10.3 mm 17.3° 1015.4 hPa 2.3 m/s 29.9 mm 15.8° 1016.4 hPa 0.4 m/s 0.4 mm 15.4° 1016.3 hPa 0.8 m/s
05:00 15.3° 1016.3 hPa 1.0 m/s 33.0 mm 15.3° 1016.3 hPa 1.0 m/s 33.0 mm
08:00 15.7° 1016.9 hPa 0.4 m/s 33.1 mm 15.7° 1016.9 hPa 0.4 m/s 33.1 mm
11:00 18.0° 1017.2 hPa 0.6 m/s 33.3 mm 18.0° 1017.2 hPa 0.6 m/s 33.3 mm
14:00 20.6° 1016.8 hPa 1.4 m/s 33.4 mm 20.6° 1016.8 hPa 1.4 m/s 33.4 mm
17:00 22.9° 1015.6 hPa 1.8 m/s 33.6 mm 22.9° 1015.6 hPa 1.8 m/s 33.6 mm
20:00 19.9° 1015.8 hPa 0.9 m/s 33.7 mm 19.9° 1015.8 hPa 0.9 m/s 33.7 mm
23:00 15.0° 1017.2 hPa 0.4 m/s 33.7 mm 15.0° 1017.2 hPa 0.4 m/s 33.7 mm
 06:08     21:06    Daglengte: 14:58 Donderdag 29 Jul
02:00 13.9° 1016.3 hPa 0.7 m/s 33.7 mm 13.9° 1016.3 hPa 0.7 m/s 33.7 mm
05:00 13.3° 1015.9 hPa 0.8 m/s 33.7 mm 13.3° 1015.9 hPa 0.8 m/s 33.7 mm
08:00 16.2° 1015.6 hPa 0.4 m/s 33.7 mm 16.2° 1015.6 hPa 0.4 m/s 33.7 mm
11:00 21.8° 1014.5 hPa 1.3 m/s 33.7 mm 21.8° 1014.5 hPa 1.3 m/s 33.7 mm
14:00 25.8° 1013.3 hPa 2.4 m/s 33.7 mm 25.8° 1013.3 hPa 2.4 m/s 33.7 mm
17:00 26.8° 1012.2 hPa 2.9 m/s 33.8 mm 26.8° 1012.2 hPa 2.9 m/s 33.8 mm
20:00 22.5° 1012.2 hPa 0.5 m/s 34.6 mm 22.5° 1012.2 hPa 0.5 m/s 34.6 mm
23:00 18.2° 1014.1 hPa 1.7 m/s 37.7 mm 18.2° 1014.1 hPa 1.7 m/s 37.7 mm
 06:10     21:05    Daglengte: 14:55 Vrijdag 30 Jul
02:00 17.0° 1014.4 hPa 0.8 m/s 38.2 mm 17.0° 1014.4 hPa 0.8 m/s 38.2 mm
05:00 16.1° 1014.5 hPa 1.1 m/s 39.3 mm 16.1° 1014.5 hPa 1.1 m/s 39.3 mm
08:00 17.8° 1014.8 hPa 0.6 m/s 40.0 mm 17.8° 1014.8 hPa 0.6 m/s 40.0 mm
11:00 21.5° 1013.7 hPa 0.8 m/s 40.2 mm 21.5° 1013.7 hPa 0.8 m/s 40.2 mm
14:00 24.7° 1012.1 hPa 1.9 m/s 40.3 mm 24.7° 1012.1 hPa 1.9 m/s 40.3 mm
17:00 24.6° 1011.1 hPa 2.3 m/s 41.5 mm 24.6° 1011.1 hPa 2.3 m/s 41.5 mm
20:00 21.4° 1011.5 hPa 1.6 m/s 43.1 mm 21.4° 1011.5 hPa 1.6 m/s 43.1 mm
23:00 17.2° 1013.3 hPa 1.7 m/s 45.4 mm 17.2° 1013.3 hPa 1.7 m/s 45.4 mm
 06:11     21:03    Daglengte: 14:52 Zaterdag 31 Jul
02:00 16.2° 1013.2 hPa 1.3 m/s 45.8 mm 16.2° 1013.2 hPa 1.3 m/s 45.8 mm
05:00 15.0° 1012.8 hPa 1.6 m/s 45.9 mm 15.0° 1012.8 hPa 1.6 m/s 45.9 mm
08:00 16.9° 1012.8 hPa 1.3 m/s 46.0 mm 16.9° 1012.8 hPa 1.3 m/s 46.0 mm
11:00 22.3° 1012.6 hPa 3.1 m/s 46.1 mm 22.3° 1012.6 hPa 3.1 m/s 46.1 mm
14:00 23.5° 1012.6 hPa 3.8 m/s 46.3 mm 23.5° 1012.6 hPa 3.8 m/s 46.3 mm
17:00 20.9° 1013.1 hPa 2.0 m/s 46.9 mm 20.9° 1013.1 hPa 2.0 m/s 46.9 mm
20:00 18.3° 1014.2 hPa 0.9 m/s 47.3 mm 18.3° 1014.2 hPa 0.9 m/s 47.3 mm
23:00 16.1° 1016.2 hPa 1.3 m/s 48.0 mm 16.1° 1016.2 hPa 1.3 m/s 48.0 mm
 06:12     21:02    Daglengte: 14:50 Zondag 01 Aug
02:00 15.0° 1017.2 hPa 0.6 m/s 48.3 mm 15.0° 1017.2 hPa 0.6 m/s 48.3 mm
05:00 14.5° 1017.1 hPa 0.6 m/s 48.6 mm 14.5° 1017.1 hPa 0.6 m/s 48.6 mm
08:00 14.8° 1017.8 hPa 0.4 m/s 48.6 mm 14.8° 1017.8 hPa 0.4 m/s 48.6 mm
14:00 21.1° 1017.1 hPa 2.1 m/s 48.8 mm 21.1° 1017.1 hPa 2.1 m/s 48.8 mm
20:00 17.2° 1017.9 hPa 1.4 m/s 49.1 mm 17.2° 1017.9 hPa 1.4 m/s 49.1 mm
 06:13     21:01    Daglengte: 14:48 Maandag 02 Aug
02:00 12.6° 1021.4 hPa 0.5 m/s 49.2 mm 12.6° 1021.4 hPa 0.5 m/s 49.2 mm
08:00 13.5° 1021.7 hPa 0.7 m/s 49.2 mm 13.5° 1021.7 hPa 0.7 m/s 49.2 mm
14:00 21.8° 1019.3 hPa 0.8 m/s 49.3 mm 21.8° 1019.3 hPa 0.8 m/s 49.3 mm
20:00 17.7° 1019.1 hPa 1.6 m/s 49.3 mm 17.7° 1019.1 hPa 1.6 m/s 49.3 mm
 06:14     20:59    Daglengte: 14:45 Dinsdag 03 Aug
02:00 12.6° 1020.0 hPa 1.0 m/s 49.3 mm 12.6° 1020.0 hPa 1.0 m/s 49.3 mm
14:00 22.4° 1015.2 hPa 2.0 m/s 49.3 mm 22.4° 1015.2 hPa 2.0 m/s 49.3 mm
20:00 16.6° 1015.1 hPa 2.9 m/s 50.0 mm 16.6° 1015.1 hPa 2.9 m/s 50.0 mm
 06:16     20:58    Daglengte: 14:42 Woensdag 04 Aug
02:00 10.6° 1015.6 hPa 1.2 m/s 1.3 mm
08:00 11.8° 1015.5 hPa 1.0 m/s 0.8 mm
14:00 19.3° 1014.4 hPa 1.7 m/s 0.7 mm
20:00 16.2° 1015.0 hPa 0.9 m/s 1.2 mm
 06:17     20:56    Daglengte: 14:39 Donderdag 05 Aug
02:00 11.1° 1016.7 hPa 1.2 m/s 0.5 mm
08:00 12.4° 1016.5 hPa 1.2 m/s 0.4 mm
14:00 19.9° 1015.4 hPa 1.8 m/s 1.1 mm
20:00 16.4° 1015.8 hPa 0.5 m/s 1.3 mm
 06:18     20:55    Daglengte: 14:37 Vrijdag 06 Aug
02:00 11.6° 1017.2 hPa 1.1 m/s 0.6 mm
08:00 12.7° 1017.1 hPa 1.2 m/s 0.6 mm
14:00 19.8° 1015.9 hPa 1.7 m/s 1.6 mm
20:00 16.4° 1016.1 hPa 0.7 m/s 2.5 mm
 06:20     20:53    Daglengte: 14:33 Zaterdag 07 Aug
02:00 11.7° 1017.6 hPa 1.0 m/s 1.9 mm
08:00 12.4° 1017.5 hPa 1.1 m/s 2.0 mm
14:00 19.4° 1016.4 hPa 1.5 m/s 2.3 mm
20:00 16.4° 1016.7 hPa 0.6 m/s 1.8 mm
 06:21     20:52    Daglengte: 14:31 Zondag 08 Aug
02:00 11.7° 1018.4 hPa 1.4 m/s 0.7 mm
08:00 12.7° 1018.4 hPa 1.2 m/s 0.8 mm
14:00 21.0° 1017.0 hPa 1.6 m/s 0.7 mm
20:00 17.1° 1017.4 hPa 0.7 m/s 1.3 mm
 06:22     20:50    Daglengte: 14:28 Maandag 09 Aug
02:00 12.3° 1018.9 hPa 1.1 m/s 1.6 mm
08:00 13.4° 1018.8 hPa 1.1 m/s 0.5 mm
FMI Hirlam - 7.5 km EWN WRFDA - 12 km DWD ICON - 7 km GFS - 25 km Basiskaart






























































Updatetijd (Europe/Amsterdam) Resolutie Lengte Stap
FMI Hirlam 02:00, 08:00, 14:00, 20:00 7.5 km 49h 1h
EWN WRFDA 05:30, 11:30, 17:30, 23:30 12 km 73h 1h
DWD ICON 23:45, 05:45, 11:45, 17:45 7 km 75h 1h
GFS 02:15, 08:15, 14:15, 20:15 25 km 237h 3h
30+ mm
25-30 mm
20-25 mm
15-20 mm
10-15 mm
6-10 mm
4-6 mm
2-4 mm
1-2 mm
0.5-1 mm
0.2-0.5 mm
0.1-0.2 mm
30+ mm
25-30 mm
20-25 mm
15-20 mm
10-15 mm
6-10 mm
4-6 mm
2-4 mm
1-2 mm
0.5-1 mm
0.2-0.5 mm
0.1-0.2 mm
Sneeuwval
Natte sneeuw
Hagel
Vorst
30+ mm
25-30 mm
20-25 mm
15-20 mm
10-15 mm
6-10 mm
4-6 mm
2-4 mm
1-2 mm
0.5-1 mm
0.2-0.5 mm
0.1-0.2 mm
Sneeuwval
Natte sneeuw
Hagel
Vorst
Onweer
50 mm
40 mm
30 mm
26 mm
22 mm
18 mm
14 mm
10 mm
9 mm
8 mm
7 mm
6 mm
5 mm
4.5 mm
4 mm
3.5 mm
3 mm
2.5 mm
2 mm
1.5 mm
1 mm
0.8 mm
0.6 mm
0.4 mm
0.2 mm
0.05 mm
35°
30°
25°
20°
15°
10°
-5°
-10°
-15°
-20°
-25°
-30°
-35°
33> m/s
29 m/s
25 m/s
21 m/s
17 m/s
14 m/s
11 m/s
8 m/s
5 m/s
3 m/s
0 m/s
2600 J/kg
2400 J/kg
2200 J/kg
2000 J/kg
1800 J/kg
1600 J/kg
1400 J/kg
1200 J/kg
1000 J/kg
800 J/kg
600 J/kg
400 J/kg
200 J/kg
70 dBZ
65 dBZ
60 dBZ
55 dBZ
50 dBZ
45 dBZ
40 dBZ
35 dBZ
30 dBZ
25 dBZ
20 dBZ
15 dBZ
10 dBZ
5 dBZ
-1 K
-2 K
-3 K
-4 K
-5 K
-6 K
-7 K
-8 K
-9 K
950 m²/s²
900 m²/s²
850 m²/s²
800 m²/s²
750 m²/s²
700 m²/s²
650 m²/s²
600 m²/s²
550 m²/s²
500 m²/s²
450 m²/s²
400 m²/s²
350 m²/s²
300 m²/s²
250 m²/s²
200 m²/s²
150 m²/s²
100 m²/s²
46 m/s
44 m/s
42 m/s
40 m/s
38 m/s
36 m/s
34 m/s
32 m/s
30 m/s
28 m/s
26 m/s
24 m/s
22 m/s
20 m/s
16 m/s
12 m/s
8 m/s
4 m/s
30 m/s
28 m/s
26 m/s
24 m/s
22 m/s
20 m/s
18 m/s
16 m/s
14 m/s
12 m/s
10 m/s
8 m/s
6 m/s
4 m/s
2 m/s
3.0
2.8
2.6
2.4
2.2
2.0
1.8
1.6
1.4
1.2
1.0
0.8
0.6
0.4
0.2
15
14
13
12
11
10
9
8
7
6
5
4
3
2
1
90%
80%
70%
60%
50%
40%
30%
20%
10%
42
40
38
36
34
32
30
28
26
24
22
20
18
16
14
12
90+ cm
80-90 cm
70-80 cm
60-70 cm
50-60 cm
40-50 cm
30-40 cm
20-30 cm
10-20 cm
1-10 cm
Sneeuwval
Natte sneeuw
Regen
>120 mm
115 mm
110 mm
105 mm
100 mm
95 mm
90 mm
85 mm
80 mm
75 mm
70 mm
65 mm
60 mm
55 mm
50 mm
45 mm
45 mm
40 mm
35 mm
30 mm
25 mm
20 mm
15 mm
10 mm
5 mm
0.1 mm
960 hPa
880 hPa
800 hPa
720 hPa
640 hPa
560 hPa
584 gpdm
568 gpdm
552 gpdm
536 gpdm
520 gpdm
504 gpdm
488 gpdm
</